USA 283

Last updated on Tue Nov 19 2024 00:02:43 GMT+0000 (Coordinated Universal Time)

1 43339U 18036A 24323.53497331 -.00000315 00000+0 00000+0 0 9997 2 43339 0.0159 325.3873 0000132 357.5937 61.7575 1.00266712 19517
UTC large
Height (km)
Speed (km/s)
/
Latitude / Longitude
Inclination (degrees)
Orbital Period (minutes)
Azimuth
Elevation
Range (km)
Doppler Factor

Next 0 passes for location: London (51.5072 / 0.1276)

Sorry there are no passes over London.